| time (UTC) | temp F | wind direction | speed MPH | gust MPH | rain 1hr in | rain 24hr in | rain mn in | humidity % | barometer mb |
| 20260504230924 | 67 | 319 | 0.0 | 0.0 | 0.00 | 0.00 | 0.00 | 62 | 1034.0 |
| 20260504225922 | 68 | 319 | 0.0 | 0.0 | 0.00 | 0.00 | 0.00 | 63 | 1033.9 |
| 20260504224922 | 67 | 325 | 0.0 | 0.0 | 0.00 | 0.00 | 0.00 | 63 | 1033.8 |
| 20260504223924 | 67 | 318 | 0.0 | 0.0 | 0.00 | 0.00 | 0.00 | 63 | 1034.0 |
| 20260504222025 | 67 | 320 | 0.0 | 0.0 | 0.00 | 0.00 | 0.00 | 65 | 1033.9 |
| 20260504221121 | 67 | 322 | 0.0 | 0.0 | 0.00 | 0.00 | 0.00 | 64 | 1034.2 |
| 20260504220124 | 67 | 322 | 0.0 | 0.0 | 0.00 | 0.00 | 0.00 | 66 | 1034.4 |
| 20260504215221 | 67 | 321 | 0.0 | 0.0 | 0.00 | 0.00 | 0.00 | 67 | 1034.6 |
| 20260504214321 | 67 | 319 | 0.0 | 0.0 | 0.00 | 0.00 | 0.00 | 65 | 1034.5 |
| 20260504213322 | 68 | 319 | 0.0 | 0.0 | 0.00 | 0.00 | 0.00 | 65 | 1034.7 |
| 20260504212323 | 67 | 316 | 0.0 | 0.0 | 0.00 | 0.00 | 0.00 | 66 | 1034.8 |
| 20260504210323 | 67 | 325 | 0.0 | 0.0 | 0.00 | 0.00 | 0.00 | 64 | 1034.9 |
| 20260504205322 | 67 | 323 | 0.0 | 0.0 | 0.00 | 0.00 | 0.00 | 64 | 1035.1 |
| 20260504204323 | 68 | 326 | 0.0 | 0.0 | 0.00 | 0.00 | 0.00 | 64 | 1034.9 |
| 20260504203422 | 68 | 327 | 0.0 | 0.0 | 0.00 | 0.00 | 0.00 | 63 | 1034.9 |
| 20260504202423 | 67 | 328 | 0.0 | 0.0 | 0.00 | 0.00 | 0.00 | 66 | 1035.0 |
| 20260504201423 | 66 | 322 | 0.0 | 0.0 | 0.00 | 0.00 | 0.00 | 67 | 1035.0 |
| 20260504200422 | 66 | 326 | 0.0 | 0.0 | 0.00 | 0.00 | 0.00 | 66 | 1035.1 |
| 20260504195422 | 66 | 319 | 0.0 | 0.0 | 0.00 | 0.00 | 0.00 | 67 | 1034.9 |
| 20260504194424 | 66 | 327 | 0.0 | 0.0 | 0.00 | 0.00 | 0.00 | 68 | 1035.0 |
| 20260504193424 | 65 | 317 | 0.0 | 0.0 | 0.00 | 0.00 | 0.00 | 69 | 1035.2 |
| 20260504192424 | 66 | 320 | 0.0 | 0.0 | 0.00 | 0.00 | 0.00 | 68 | 1035.2 |
| 20260504191522 | 65 | 327 | 0.0 | 0.0 | 0.00 | 0.00 | 0.00 | 69 | 1035.3 |
| 20260504185621 | 66 | 320 | 0.0 | 0.0 | 0.00 | 0.00 | 0.00 | 68 | 1035.3 |
| 20260504184623 | 66 | 322 | 0.0 | 0.0 | 0.00 | 0.00 | 0.00 | 68 | 1035.5 |
| 20260504183623 | 65 | 325 | 0.0 | 0.0 | 0.00 | 0.00 | 0.00 | 67 | 1035.4 |
| 20260504182623 | 64 | 325 | 0.0 | 0.0 | 0.00 | 0.00 | 0.00 | 68 | 1035.6 |
| 20260504181621 | 64 | 319 | 0.0 | 0.0 | 0.00 | 0.00 | 0.00 | 68 | 1035.5 |
| 20260504180622 | 64 | 321 | 0.0 | 0.0 | 0.00 | 0.00 | 0.00 | 68 | 1035.5 |
| 20260504175622 | 63 | 318 | 0.0 | 0.0 | 0.00 | 0.00 | 0.00 | 69 | 1035.6 |
| 20260504174623 | 63 | 317 | 0.0 | 0.0 | 0.00 | 0.00 | 0.00 | 70 | 1035.3 |
| 20260504173722 | 63 | 319 | 0.0 | 0.0 | 0.00 | 0.00 | 0.00 | 71 | 1035.5 |
| 20260504172723 | 63 | 320 | 0.0 | 0.0 | 0.00 | 0.00 | 0.00 | 70 | 1035.2 |
| 20260504170723 | 63 | 317 | 0.0 | 0.0 | 0.00 | 0.00 | 0.00 | 69 | 1035.1 |
| 20260504150824 | 60 | 181 | 0.0 | 0.0 | 0.00 | 0.00 | 0.00 | 76 | 1034.5 |
| 20260504141023 | 59 | 360 | 0.0 | 0.0 | 0.00 | 0.00 | 0.00 | 78 | 1034.2 |
| 20260504130122 | 59 | 360 | 0.0 | 0.0 | 0.00 | 0.00 | 0.00 | 79 | 1033.7 |
| 20260504120223 | 59 | 317 | 0.0 | 0.0 | 0.00 | 0.00 | 0.00 | 75 | 1033.8 |
| 20260504110224 | 59 | 321 | 0.0 | 0.0 | 0.00 | 0.00 | 0.00 | 76 | 1033.9 |
| 20260504100223 | 59 | 329 | 0.0 | 0.0 | 0.00 | 0.00 | 0.00 | 74 | 1033.3 |
| 20260504081423 | 60 | 333 | 0.0 | 0.0 | 0.00 | 0.00 | 0.00 | 76 | 1034.1 |
| 20260504080522 | 60 | 327 | 0.0 | 0.0 | 0.00 | 0.00 | 0.00 | 77 | 1034.6 |
| 20260504050123 | 62 | 324 | 0.0 | 0.0 | 0.00 | 0.00 | 0.00 | 74 | 1034.0 |
| 20260504045222 | 62 | 336 | 0.0 | 0.0 | 0.00 | 0.00 | 0.00 | 73 | 1034.1 |
| 20260504044223 | 62 | 319 | 0.0 | 0.0 | 0.00 | 0.00 | 0.00 | 72 | 1033.7 |
| 20260504043223 | 62 | 337 | 0.0 | 0.0 | 0.00 | 0.00 | 0.00 | 73 | 1033.6 |
| 20260504042322 | 62 | 315 | 0.0 | 0.0 | 0.00 | 0.00 | 0.00 | 72 | 1033.6 |
| 20260504041421 | 62 | 316 | 0.0 | 0.0 | 0.00 | 0.00 | 0.00 | 72 | 1033.5 |
| 20260504040422 | 62 | 321 | 0.0 | 0.0 | 0.00 | 0.00 | 0.00 | 70 | 1033.6 |
| 20260504034521 | 62 | 322 | 0.0 | 0.0 | 0.00 | 0.00 | 0.00 | 70 | 1033.6 |
| 20260504033523 | 62 | 333 | 0.0 | 0.0 | 0.00 | 0.00 | 0.00 | 69 | 1033.5 |
| 20260504032522 | 62 | 320 | 0.0 | 0.0 | 0.00 | 0.00 | 0.00 | 69 | 1033.6 |
| 20260504024623 | 62 | 316 | 0.0 | 0.0 | 0.00 | 0.00 | 0.00 | 69 | 1032.9 |
| 20260504023623 | 62 | 323 | 0.0 | 0.0 | 0.00 | 0.00 | 0.00 | 69 | 1032.9 |
| 20260504022623 | 62 | 315 | 0.0 | 0.0 | 0.00 | 0.00 | 0.00 | 67 | 1033.1 |
| 20260504021621 | 62 | 325 | 0.0 | 0.0 | 0.00 | 0.00 | 0.00 | 67 | 1033.0 |
| 20260504020622 | 63 | 336 | 0.0 | 0.0 | 0.00 | 0.00 | 0.00 | 67 | 1033.0 |
| 20260504014721 | 63 | 327 | 0.0 | 0.0 | 0.00 | 0.00 | 0.00 | 67 | 1032.9 |
| 20260504012723 | 63 | 317 | 0.0 | 0.0 | 0.00 | 0.00 | 0.00 | 66 | 1032.8 |
| 20260504011725 | 63 | 319 | 0.0 | 0.0 | 0.00 | 0.00 | 0.00 | 65 | 1032.7 |
| 20260504010722 | 63 | 316 | 0.0 | 0.0 | 0.00 | 0.00 | 0.00 | 65 | 1032.7 |
| 20260504005722 | 63 | 320 | 0.0 | 0.0 | 0.00 | 0.00 | 0.00 | 64 | 1032.6 |
| 20260504004821 | 63 | 320 | 0.0 | 0.0 | 0.00 | 0.00 | 0.00 | 64 | 1032.4 |
| 20260504003821 | 64 | 316 | 0.0 | 0.0 | 0.00 | 0.00 | 0.00 | 63 | 1032.5 |
| 20260504002821 | 64 | 321 | 0.0 | 0.0 | 0.00 | 0.00 | 0.00 | 64 | 1032.2 |
| 20260504000822 | 65 | 323 | 0.0 | 0.0 | 0.00 | 0.00 | 0.00 | 63 | 1032.1 |
| 20260503235823 | 65 | 318 | 0.0 | 0.0 | 0.00 | 0.00 | 0.00 | 62 | 1032.0 |
| 20260503234823 | 65 | 323 | 0.0 | 0.0 | 0.00 | 0.00 | 0.00 | 61 | 1032.1 |
| 20260503233823 | 66 | 316 | 0.0 | 0.0 | 0.00 | 0.00 | 0.00 | 61 | 1031.6 |
| 20260503231921 | 67 | 318 | 0.0 | 0.0 | 0.00 | 0.00 | 0.00 | 59 | 1031.7 |